Location: Unspecified
(0.0000°N, 0.0000°E)
Time: 14:34:06
(UTC+00:00)

Hubble Space Telescope - Pass Details

Date: 15 October 2017
Orbit: 537 x 541 km, 28.5° (Epoch: 17 December)

Event Time Altitude Azimuth Distance (km) Brightness Sun altitude
Rises 18:46:16 0° 260° (W) 2,671 6.3 -15.0°
Reaches altitude 10° 18:48:48 10° 273° (W) 1,779 4.7 -15.6°
Maximum altitude 18:52:15 26° 331° (NNW) 1,076 2.5 -16.4°
Enters shadow 18:54:51 14° 20° (NNE) 1,510 2.8 -17.1°
